Location: Newark
(45.8944°N, 12.5886°E)
Time: 12:54:00
(UTC+00:00)

AO-7 - Visible Passes

Search period start: 04 April 2020 00:00
Search period end: 14 April 2020 00:00
Orbit: 1439 x 1459 km, 101.8° (Epoch: 04 April)

Date Brightness Start Highest point End Pass type
(mag) Time Alt. Az. Time Alt. Az. Time Alt. Az.
04 Apr ? 00:56:44 10° ENE 00:58:48 11° E 01:00:51 10° E visible
04 Apr ? 02:45:06 10° NNE 02:53:18 60° ESE 03:01:27 10° S visible
05 Apr ? 01:46:01 10° NE 01:52:47 27° E 01:59:29 10° SSE visible
05 Apr ? 03:37:58 10° NNE 03:46:16 75° WNW 03:54:29 10° SSW visible
06 Apr ? 02:38:07 10° NNE 02:46:15 55° ESE 02:54:18 10° S visible
07 Apr ? 01:39:13 10° NE 01:45:39 24° E 01:52:02 10° SE visible
07 Apr ? 03:30:56 10° NNE 03:39:16 81° WNW 03:47:32 10° SSW visible
08 Apr ? 02:31:10 10° NNE 02:39:11 50° ESE 02:47:08 10° S visible
09 Apr ? 01:32:27 10° NE 01:38:31 22° E 01:44:32 10° SE visible
09 Apr ? 03:23:55 10° NNE 03:32:15 87° WNW 03:40:33 10° SSW visible
10 Apr ? 02:24:13 10° NNE 02:32:07 45° E 02:39:56 10° S visible
11 Apr ? 01:25:44 10° NE 01:31:22 20° E 01:36:58 10° SE visible
11 Apr ? 03:16:53 10° NNE 03:25:15 87° ESE 03:33:33 10° SSW visible
12 Apr ? 02:17:17 10° NNE 02:25:02 41° E 02:32:43 10° SSE visible
13 Apr ? 01:19:05 10° NE 01:24:13 17° E 01:29:19 10° SE visible
13 Apr ? 03:09:52 10° NNE 03:18:13 80° ESE 03:26:31 10° SSW visible
